Who We Are

A&E Flying Club is a non-profit club, located at Hawthorne Municipal airport (KHHR).  A&E does not rent aircraft; it is a members only club.  Members own, fly, and maintain four IFR-capable aircraft.  Aircraft are available for everything from a short local tour or lunch outing to extended trips.

Membership is limited to fifty Active members. Our members perform the preventative maintenance allowed by the FAA.  The club has a dedicated maintenance day and club meeting on the third Saturday of every month from 8AM until the work is done.  Many members have gone on to purchase their own aircraft having learned bout ownership through their involvement with our club.

Whether you already have a pilot certificate or think you might be interested in learning to fly, check out A&E.  For more information, please contact the membership coordinator at membership@aandeflyingclub.org.

METAR
KHHR 030830Z AUTO 00000KT 10SM BKN026 21/15 A2993 RMK AO2 T02060150
KHHR 030753Z AUTO 21003KT 10SM SCT027 21/16 A2993 RMK AO2 SLP135 T02060156 402500206
KHHR 030751Z AUTO 21003KT 10SM SCT027 21/16 A2993 RMK AO2
KHHR 030653Z AUTO 23004KT 10SM OVC024 21/15 A2994 RMK AO2 SLP138 T02060150